When you browse on this site, cookies collect data to enhance your experience and personalize the content and advertising you see.
Visit our Privacy Policy to learn more. By continuing to use the site, you agree to this use of cookies and data.
  • In Hungary
  • List of Countries
  • For 7 days
  • Water Temperature
  • Satellite Maps
  • Weather Map
  • News
  • Weather Widgets
  • user-avatar
    Login

    Hourly Weather Heist-op-den-Berg

    Today, 18 November, Sunday

    Time Temperature Precipitation Wind Pressure Humidity
    00:00 +1°C° 0 mm 4 mps 770 mmHg 66%
    01:00 +1°C° 0 mm 4 mps 770 mmHg 67%
    02:00 +1°C° 0 mm 4 mps 770 mmHg 67%
    03:00 +1°C° 0 mm 4 mps 770 mmHg 68%
    04:00 +1°C° 0 mm 4 mps 770 mmHg 68%
    05:00 0°C° 0 mm 4 mps 770 mmHg 68%
    06:00 0°C° 0 mm 4 mps 770 mmHg 70%
    07:00 0°C° 0 mm 4 mps 770 mmHg 66%
    08:00 +1°C° 0 mm 5 mps 770 mmHg 63%
    09:00 +1°C° 0 mm 5 mps 770 mmHg 60%
    10:00 +2°C° 0 mm 5 mps 770 mmHg 56%
    11:00 +5°C° 0 mm 5 mps 769 mmHg 52%
    12:00 +5°C° 0 mm 5 mps 769 mmHg 47%
    13:00 +5°C° 0 mm 5 mps 768 mmHg 47%
    14:00 +5°C° 0 mm 5 mps 768 mmHg 47%
    15:00 +5°C° 0 mm 5 mps 768 mmHg 47%
    16:00 +3°C° 0 mm 5 mps 768 mmHg 46%
    17:00 +2°C° 0 mm 5 mps 768 mmHg 45%
    18:00 +1°C° 0 mm 5 mps 768 mmHg 44%
    19:00 +1°C° 0 mm 5 mps 768 mmHg 47%
    20:00 +1°C° 0 mm 5 mps 768 mmHg 49%
    21:00 +1°C° 0 mm 5 mps 767 mmHg 51%
    22:00 0°C° 0 mm 5 mps 767 mmHg 59%
    23:00 0°C° 0 mm 5 mps 767 mmHg 67%

    Tomorrow, 19 November, Monday

    Time Temperature Precipitation Wind Pressure Humidity
    00:00 0°C° 0 mm 5 mps 767 mmHg 76%
    01:00 0°C° 0 mm 5 mps 767 mmHg 81%
    02:00 0°C° 0 mm 5 mps 766 mmHg 85%
    03:00 0°C° 0 mm 5 mps 766 mmHg 90%
    04:00 +1°C° 0 mm 5 mps 766 mmHg 89%
    05:00 +1°C° 0 mm 5 mps 765 mmHg 88%
    06:00 +2°C° 0 mm 5 mps 765 mmHg 87%
    07:00 +2°C° 0 mm 6 mps 765 mmHg 84%
    08:00 +3°C° 0 mm 6 mps 764 mmHg 81%
    09:00 +3°C° 0 mm 6 mps 764 mmHg 78%
    10:00 +4°C° 0 mm 7 mps 763 mmHg 72%
    11:00 +5°C° 0 mm 7 mps 763 mmHg 67%
    12:00 +6°C° 0 mm 8 mps 762 mmHg 61%
    13:00 +5°C° 0.1 mm 8 mps 762 mmHg 62%
    14:00 +5°C° 0.1 mm 7 mps 761 mmHg 63%
    15:00 +4°C° 0.1 mm 7 mps 761 mmHg 63%
    16:00 +4°C° 0 mm 7 mps 761 mmHg 65%
    17:00 +3°C° 0 mm 7 mps 761 mmHg 67%
    18:00 +2°C° 0 mm 7 mps 760 mmHg 68%
    19:00 +2°C° 0 mm 7 mps 760 mmHg 69%
    20:00 +2°C° 0 mm 7 mps 760 mmHg 71%
    21:00 0°C° 0 mm 7 mps 760 mmHg 72%
    22:00 0°C° 0 mm 7 mps 759 mmHg 71%
    23:00 0°C° 0 mm 7 mps 759 mmHg 69%

    Day after tomorrow, 20 November, Tuesday

    Time Temperature Precipitation Wind Pressure Humidity
    00:00 0°C° 0 mm 7 mps 759 mmHg 68%
    01:00 0°C° 0 mm 7 mps 758 mmHg 67%
    02:00 0°C° 0 mm 7 mps 758 mmHg 67%
    03:00 0°C° 0 mm 7 mps 757 mmHg 67%
    04:00 0°C° 0 mm 7 mps 757 mmHg 67%
    05:00 0°C° 0 mm 7 mps 757 mmHg 68%
    06:00 0°C° 0 mm 7 mps 756 mmHg 69%
    07:00 0°C° 0 mm 7 mps 756 mmHg 67%
    08:00 0°C° 0 mm 7 mps 756 mmHg 65%
    09:00 +2°C° 0 mm 7 mps 755 mmHg 64%
    10:00 +2°C° 0 mm 7 mps 755 mmHg 62%
    11:00 +3°C° 0 mm 7 mps 755 mmHg 60%
    12:00 +3°C° 0 mm 7 mps 754 mmHg 58%
    13:00 +3°C° 0 mm 7 mps 754 mmHg 59%
    14:00 +3°C° 0 mm 6 mps 754 mmHg 60%
    15:00 +3°C° 0 mm 6 mps 754 mmHg 61%
    16:00 +2°C° 0 mm 6 mps 754 mmHg 64%
    17:00 +2°C° 0 mm 5 mps 754 mmHg 67%
    18:00 +1°C° 0 mm 5 mps 754 mmHg 71%
    19:00 +1°C° 0 mm 5 mps 754 mmHg 73%
    20:00 +1°C° 0 mm 5 mps 754 mmHg 75%
    21:00 0°C° 0 mm 5 mps 755 mmHg 78%
    22:00 0°C° 0 mm 4 mps 755 mmHg 79%
    23:00 +1°C° 0 mm 4 mps 755 mmHg 80%

    21 November, Wednesday

    Time Temperature Precipitation Wind Pressure Humidity
    00:00 +1°C° 0 mm 4 mps 755 mmHg 81%
    01:00 +1°C° 0 mm 4 mps 755 mmHg 81%
    02:00 +1°C° 0 mm 4 mps 755 mmHg 80%
    03:00 +1°C° 0 mm 4 mps 755 mmHg 79%
    04:00 +1°C° 0 mm 4 mps 756 mmHg 80%
    05:00 +1°C° 0 mm 4 mps 756 mmHg 82%
    06:00 +1°C° 0 mm 3 mps 757 mmHg 83%
    07:00 +2°C° 0 mm 3 mps 757 mmHg 81%
    08:00 +2°C° 0 mm 3 mps 758 mmHg 79%
    09:00 +3°C° 0 mm 3 mps 758 mmHg 77%
    10:00 +4°C° 0 mm 3 mps 758 mmHg 74%
    11:00 +4°C° 0 mm 3 mps 759 mmHg 72%
    12:00 +5°C° 0 mm 3 mps 759 mmHg 69%
    13:00 +5°C° 0 mm 3 mps 759 mmHg 71%
    14:00 +6°C° 0 mm 2 mps 759 mmHg 73%
    15:00 +6°C° 0 mm 2 mps 760 mmHg 74%
    16:00 +5°C° 0 mm 2 mps 760 mmHg 77%
    17:00 +5°C° 0 mm 2 mps 760 mmHg 79%
    18:00 +4°C° 0 mm 2 mps 761 mmHg 81%
    19:00 +4°C° 0 mm 2 mps 761 mmHg 82%
    20:00 +3°C° 0 mm 2 mps 761 mmHg 84%
    21:00 +3°C° 0 mm 2 mps 762 mmHg 85%
    22:00 +3°C° 0 mm 2 mps 762 mmHg 85%
    23:00 +3°C° 0 mm 2 mps 762 mmHg 86%

    22 November, Thursday

    Time Temperature Precipitation Wind Pressure Humidity
    00:00 +3°C° 0 mm 2 mps 762 mmHg 87%
    01:00 +3°C° 0 mm 2 mps 762 mmHg 87%
    02:00 +3°C° 0 mm 2 mps 762 mmHg 88%
    03:00 +2°C° 0 mm 2 mps 762 mmHg 89%
    04:00 +2°C° 0 mm 2 mps 762 mmHg 90%
    05:00 +2°C° 0 mm 2 mps 762 mmHg 91%
    06:00 +2°C° 0 mm 2 mps 763 mmHg 92%
    07:00 +3°C° 0 mm 2 mps 763 mmHg 89%
    08:00 +3°C° 0 mm 2 mps 763 mmHg 87%
    09:00 +4°C° 0 mm 2 mps 763 mmHg 85%
    10:00 +5°C° 0 mm 2 mps 763 mmHg 80%
    11:00 +6°C° 0 mm 2 mps 763 mmHg 76%
    12:00 +7°C° 0 mm 2 mps 763 mmHg 72%
    13:00 +8°C° 0 mm 1 mps 763 mmHg 74%
    14:00 +7°C° 0 mm 1 mps 764 mmHg 76%
    15:00 +7°C° 0 mm 1 mps 764 mmHg 79%
    16:00 +6°C° 0 mm 1 mps 764 mmHg 82%
    17:00 +6°C° 0 mm 1 mps 764 mmHg 85%
    18:00 +4°C° 0 mm 2 mps 764 mmHg 88%
    19:00 +3°C° 0 mm 2 mps 765 mmHg 89%
    20:00 +3°C° 0 mm 2 mps 765 mmHg 90%
    21:00 +3°C° 0 mm 2 mps 765 mmHg 91%
    22:00 +3°C° 0 mm 2 mps 765 mmHg 91%
    23:00 +3°C° 0 mm 2 mps 765 mmHg 91%

    23 November, Friday

    Time Temperature Precipitation Wind Pressure Humidity
    00:00 +3°C° 0 mm 2 mps 765 mmHg 91%
    01:00 +3°C° 0 mm 2 mps 765 mmHg 91%
    02:00 +2°C° 0 mm 2 mps 765 mmHg 91%
    03:00 +2°C° 0 mm 2 mps 765 mmHg 91%
    04:00 +2°C° 0 mm 2 mps 765 mmHg 90%
    05:00 +2°C° 0 mm 2 mps 765 mmHg 90%
    06:00 +3°C° 0 mm 2 mps 765 mmHg 90%
    07:00 +3°C° 0 mm 2 mps 765 mmHg 87%
    08:00 +4°C° 0 mm 2 mps 765 mmHg 84%
    09:00 +5°C° 0 mm 2 mps 765 mmHg 81%
    10:00 +6°C° 0 mm 2 mps 765 mmHg 77%
    11:00 +8°C° 0 mm 1 mps 765 mmHg 73%
    12:00 +9°C° 0 mm 1 mps 765 mmHg 69%
    13:00 +9°C° 0 mm 1 mps 764 mmHg 72%
    14:00 +9°C° 0 mm 1 mps 764 mmHg 75%
    15:00 +8°C° 0 mm 1 mps 764 mmHg 77%
    16:00 +7°C° 0 mm 1 mps 764 mmHg 81%
    17:00 +7°C° 0 mm 1 mps 764 mmHg 84%
    18:00 +6°C° 0 mm 1 mps 764 mmHg 87%
    19:00 +6°C° 0 mm 1 mps 764 mmHg 88%
    20:00 +5°C° 0 mm 1 mps 764 mmHg 89%
    21:00 +5°C° 0 mm 1 mps 763 mmHg 90%
    22:00 +5°C° 0 mm 1 mps 763 mmHg 90%
    23:00 +5°C° 0 mm 1 mps 763 mmHg 91%
    Show more